Weather History for Detroit Metro, MI

Change the Weather History Date:

Sunday, October 2, 2011

  Actual Average Record
Temperature  
Mean Temperature 52 °F 58 °F  
Max Temperature 63 °F 67 °F 86 °F (1971)
Min Temperature 40 °F 48 °F 29 °F (1974)
Degree Days  
Heating Degree Days 13 8  
Month to date heating degree days 29 16  
Since 1 July heating degree days 135 130  
Cooling Degree Days 0 1  
Month to date cooling degree days 0 2  
Year to date cooling degree days 1054 797  
Growing Degree Days 1 (Base 50)    
Moisture  
Dew Point 35 °F    
Average Humidity 56    
Maximum Humidity 85    
Minimum Humidity 27    
Precipitation  
Precipitation T in 0.09 in 2.00 in (1925)
Month to date precipitation 0.01 0.18  
Year to date precipitation 36.78 25.88  
Snow  
Snow 0.00 in 0.00 in T in (1987)
Month to date snowfall 0.0 0.0  
Since 1 July snowfall 0.0 0.0  
Since 1 September snowfall 0.0 0.0  
Snow Depth 0.00 in    
Sea Level Pressure  
Sea Level Pressure 30.11 in    
Wind  
Wind Speed 12 mph (NNW)    
Max Wind Speed 22 mph    
Max Gust Speed 31 mph    
Visibility 10 miles    
Events Rain    
T = Trace of Precipitation, MM = Missing Value Source: NWS Daily Summary

Daily Weather History Graph

Daily Weather History Graph

Search for Another Location

Airport:

Trip Planner

Search our weather history database for the weather conditions in past years. The results will help you decide how hot, cold, wet, or windy it might be!

Date:

Astronomy

Oct. 02, 2011 Rise Set
Actual Time 7:31 AM EDT 7:13 PM EDT
Civil Twilight 7:03 AM EDT 7:41 PM EDT
Nautical Twilight 6:30 AM EDT 8:13 PM EDT
Astronomical Twilight 5:57 AM EDT 8:46 PM EDT
Moon 1:43 PM EDT (10/2) 11:04 PM EDT (10/2)
Length of Visible Light 12h 38m
Length of Day
11h 42m
Waxing Crescent, 34% of the Moon is Illuminated
Oct 2
Waxing Crescent
Oct 3
First Quarter
Oct 11
Full
Oct 19
Last Quarter
Oct 26
New

Hourly Weather History & Observations

Time (EDT) Temp. Windchill Dew Point Humidity Pressure Visibility Wind Dir Wind Speed Gust Speed Precip Events Conditions
12:53 AM 44.1 °F 40.1 °F 37.0 °F 76% 30.16 in 10.0 mi NW 6.9 mph - N/A   Scattered Clouds
1:53 AM 44.1 °F 39.0 °F 36.0 °F 73% 30.16 in 10.0 mi NNW 9.2 mph - N/A   Scattered Clouds
2:53 AM 43.0 °F 38.8 °F 37.0 °F 80% 30.15 in 10.0 mi NW 6.9 mph - N/A   Scattered Clouds
3:53 AM 44.1 °F 39.0 °F 37.0 °F 76% 30.14 in 10.0 mi NW 9.2 mph - N/A   Scattered Clouds
4:53 AM 44.1 °F 39.0 °F 37.0 °F 76% 30.14 in 10.0 mi NW 9.2 mph - N/A   Mostly Cloudy
5:53 AM 42.1 °F 37.1 °F 37.0 °F 82% 30.14 in 10.0 mi NW 8.1 mph - N/A   Scattered Clouds
6:53 AM 41.0 °F 35.2 °F 36.0 °F 82% 30.14 in 10.0 mi NW 9.2 mph - N/A   Partly Cloudy
7:53 AM 39.9 °F 35.8 °F 36.0 °F 86% 30.15 in 10.0 mi WNW 5.8 mph - N/A   Partly Cloudy
8:53 AM 44.1 °F 39.0 °F 37.9 °F 79% 30.16 in 10.0 mi NW 9.2 mph - N/A   Partly Cloudy
9:53 AM 48.9 °F - 39.9 °F 71% 30.15 in 10.0 mi NW 13.8 mph 17.3 mph N/A   Partly Cloudy
10:53 AM 52.0 °F - 42.1 °F 69% 30.14 in 10.0 mi NNW 13.8 mph - N/A   Scattered Clouds
11:53 AM 54.0 °F - 39.0 °F 57% 30.12 in 10.0 mi NW 13.8 mph - N/A   Scattered Clouds
12:53 PM 57.0 °F - 39.0 °F 51% 30.11 in 10.0 mi NW 17.3 mph - N/A   Scattered Clouds
1:53 PM 60.1 °F - 37.0 °F 42% 30.07 in 10.0 mi NW 18.4 mph 24.2 mph N/A   Scattered Clouds
2:53 PM 61.0 °F - 35.1 °F 38% 30.04 in 10.0 mi WNW 20.7 mph 31.1 mph N/A   Scattered Clouds
3:53 PM 63.0 °F - 33.1 °F 33% 30.04 in 10.0 mi NW 18.4 mph 24.2 mph N/A   Scattered Clouds
4:53 PM 60.1 °F - 30.0 °F 32% 30.03 in 10.0 mi NW 17.3 mph 26.5 mph N/A   Mostly Cloudy
5:53 PM 62.1 °F - 28.9 °F 29% 30.04 in 10.0 mi North 16.1 mph - N/A   Mostly Cloudy
6:53 PM 59.0 °F - 28.0 °F 31% 30.05 in 10.0 mi North 11.5 mph 18.4 mph 0.00 in Rain Light Rain
7:53 PM 57.9 °F - 30.0 °F 35% 30.06 in 10.0 mi North 9.2 mph - 0.00 in   Mostly Cloudy
8:53 PM 55.9 °F - 30.0 °F 37% 30.09 in 10.0 mi NNE 11.5 mph - N/A   Mostly Cloudy
9:53 PM 55.0 °F - 33.1 °F 43% 30.10 in 10.0 mi North 8.1 mph - N/A   Overcast
10:53 PM 55.0 °F - 36.0 °F 49% 30.10 in 10.0 mi NNW 9.2 mph - N/A   Mostly Cloudy
11:53 PM 52.0 °F - 36.0 °F 54% 30.09 in 10.0 mi NNW 4.6 mph - N/A   Scattered Clouds